Date,TemperatureHighF,TemperatureAvgF,TemperatureLowF,DewpointHighF,DewpointAvgF,DewpointLowF,HumidityHigh,HumidityAvg,HumidityLow,PressureMaxIn,PressureMinIn,WindSpeedMaxMPH,WindSpeedAvgMPH,GustSpeedMaxMPH,PrecipitationSumIn
2013-1-1,38.0,34.2,30.0,36.2,32.4,28.1,94,93,93,18.62,18.62,7,0,7,0.01
2013-1-2,36.3,30.1,22.3,28.4,21.8,18.2,84,71,61,21.06,16.57,4,0,4,0.00
2013-1-3,43.9,29.7,18.6,33.4,22.7,15.3,91,77,55,16.57,16.57,4,0,4,0.00
2013-1-7,53.9,51.0,45.2,31.7,29.5,26.6,49,44,40,18.08,17.75,6,0,6,0.00
2013-1-8,58.9,52.1,47.2,44.9,43.2,38.3,91,73,54,18.23,17.69,7,0,7,0.27
2013-1-9,53.7,49.9,46.8,47.3,43.8,38.4,94,80,60,17.52,16.72,17,1,17,0.05
2013-1-10,58.2,50.5,45.8,55.6,47.0,40.0,92,88,67,22.31,17.52,12,1,12,0.09
2013-1-11,65.3,54.0,43.9,48.2,45.5,41.4,92,75,51,25.36,22.31,14,1,14,0.00
2013-1-13,27.5,23.4,16.1,22.1,18.3,12.7,86,81,76,0.00,40.00,0,0,0,0.01
2013-1-14,28.4,16.7,12.8,19.1,12.9,9.7,98,85,61,17.72,17.72,0,0,0,0.00
2013-1-15,35.2,31.1,22.0,23.3,19.8,16.0,81,64,46,17.59,17.20,5,0,5,0.00
2013-1-16,43.7,28.7,14.5,25.1,18.4,11.1,92,68,44,25.84,17.59,3,0,3,0.01
2013-1-17,48.1,34.4,22.4,34.6,25.4,17.5,89,71,52,26.50,20.91,11,0,11,0.00
2013-1-18,56.4,39.1,22.4,35.0,27.2,18.8,91,65,38,26.04,17.00,10,0,10,0.00
2013-1-19,63.5,49.3,38.4,39.6,34.3,27.8,76,57,41,26.07,17.60,7,0,7,0.00
2013-1-20,59.6,43.4,27.0,38.2,31.1,23.1,90,65,40,26.61,19.01,7,0,7,0.00
2013-1-21,40.4,32.6,23.9,18.5,16.9,15.4,70,53,39,22.09,18.24,9,0,9,0.00
2013-1-22,47.0,32.8,19.5,28.3,21.4,14.0,82,64,47,22.09,17.35,9,0,9,0.00
2013-1-23,61.6,42.6,23.9,45.4,33.4,19.8,87,71,54,26.19,17.35,6,0,6,0.00
2013-1-24,43.7,38.6,35.3,33.8,23.8,18.5,73,55,44,25.75,20.06,10,1,10,0.00
2013-1-25,51.0,39.0,31.1,36.8,30.6,27.5,91,73,50,21.15,19.41,6,0,6,0.00
2013-1-26,61.1,45.6,31.4,33.1,27.5,24.3,85,53,27,22.67,18.18,6,0,6,0.00
2013-1-27,60.0,51.4,46.4,53.4,44.6,33.1,88,78,58,22.67,22.67,13,1,13,0.00
2013-1-28,70.7,68.0,66.1,61.2,60.9,60.5,83,78,72,0.00,40.00,1,1,0,0.00
2013-1-29,68.1,65.2,55.8,63.0,60.4,52.9,92,85,81,29.43,27.13,2,1,0,1.37
2013-2-4,60.6,39.0,37.0,48.4,4.7,-99.9,79,48,53,31.70,17.89,6,-256,6,0.00
2013-2-5,67.8,46.0,28.6,51.4,33.9,25.2,91,66,35,27.44,19.39,5,0,5,0.00
2013-2-6,65.9,49.0,32.8,44.3,36.7,28.6,88,65,44,27.51,27.44,7,0,7,0.00
2013-2-7,56.9,51.4,43.8,53.2,47.6,39.3,92,87,77,29.01,20.03,10,0,10,0.06
2013-2-8,52.1,42.4,32.8,39.1,33.0,28.6,86,71,47,29.03,19.24,12,0,12,0.00
2013-2-9,49.9,41.2,33.8,42.1,33.8,28.8,92,76,48,28.42,17.82,13,0,13,0.13
2013-2-10,62.4,52.3,40.0,52.6,40.1,27.5,94,67,36,32.08,17.82,14,1,14,0.36
2013-2-11,54.6,40.9,29.3,31.4,26.1,23.2,83,58,34,26.32,22.81,5,0,5,0.00
2013-2-12,46.2,36.5,27.2,33.0,27.7,22.6,89,72,53,22.81,21.07,7,0,7,0.00
2013-2-14,59.0,52.4,44.5,37.5,34.6,31.1,60,51,43,0.00,40.00,0,0,0,0.00
2013-2-15,43.8,36.7,31.6,30.4,26.9,24.2,78,68,56,17.62,17.62,3,0,3,0.00
2013-2-18,59.0,47.3,34.5,52.1,37.3,25.6,82,68,60,25.86,19.12,12,1,12,0.06
2013-2-19,49.9,35.8,22.4,27.5,21.6,16.1,81,58,38,30.12,23.25,7,0,7,0.00
2013-2-20,35.2,31.5,25.9,30.0,22.8,14.9,84,71,51,22.57,17.22,9,0,9,0.09
2013-2-21,36.3,33.1,29.5,34.5,30.1,24.8,93,89,80,26.05,17.22,14,1,14,0.03
2013-2-22,39.9,31.6,21.8,32.3,24.0,17.7,92,74,57,26.05,17.31,6,0,6,0.02
2013-2-23,46.1,31.9,18.5,26.7,21.6,15.0,89,68,44,26.14,17.83,4,0,4,0.00
2013-2-24,59.7,42.8,22.9,38.8,30.0,19.3,90,63,42,24.55,20.39,7,0,7,0.00
2013-2-25,42.7,39.3,35.5,37.4,33.4,29.1,90,79,64,22.12,17.04,13,1,13,0.31
2013-2-26,37.0,33.9,32.8,34.3,31.6,30.7,93,91,89,20.48,20.33,10,0,10,0.12
2013-2-27,41.9,34.9,31.7,34.6,30.4,26.7,92,84,69,20.48,17.83,6,0,6,0.04
2013-2-28,39.4,33.5,27.7,30.4,27.6,24.5,90,79,67,21.66,17.83,7,0,7,0.00
2013-3-4,53.6,52.1,50.8,43.7,43.2,42.8,74,72,69,27.38,27.38,0,0,0,0.00
2013-3-11,47.5,40.9,30.3,33.9,27.0,23.2,77,58,46,26.79,21.48,7,0,7,0.01
2013-3-12,60.9,43.4,27.9,35.0,28.6,22.1,88,60,32,27.51,23.80,11,0,11,0.00
2013-3-13,54.4,40.4,26.2,24.9,21.8,19.4,81,50,28,27.56,20.59,6,0,6,0.00
2013-3-14,72.0,52.3,31.3,44.4,34.1,21.0,73,52,34,27.56,23.01,10,0,10,0.00
2013-3-15,81.2,64.3,46.6,52.6,46.5,40.5,86,56,32,26.05,24.00,11,0,11,0.00
2013-3-16,77.5,64.0,51.0,53.5,47.0,40.4,68,55,42,26.35,24.00,11,0,11,0.00
2013-3-17,51.0,44.4,41.2,42.4,40.3,38.0,93,86,67,26.16,24.09,13,1,13,0.30
2013-3-18,55.2,46.2,37.1,44.1,38.5,28.5,94,77,45,27.89,24.20,7,0,7,0.01
2013-3-19,58.4,44.2,30.3,31.3,26.8,21.6,87,55,26,27.89,21.14,11,0,11,0.00
2013-3-20,53.6,39.0,26.4,32.6,23.2,17.8,89,57,28,26.25,22.85,11,0,11,0.00
2013-3-21,43.7,35.5,32.0,32.7,24.1,13.9,91,66,31,26.25,25.00,11,1,11,0.26
2013-3-22,40.9,37.0,33.0,37.9,34.5,30.7,93,91,87,25.94,20.22,5,0,5,0.27
2013-3-23,41.0,38.6,36.6,39.0,36.6,34.2,93,92,91,25.78,21.59,7,0,7,0.03
2013-3-24,41.0,33.7,26.6,39.4,30.5,21.5,99,88,75,27.77,25.30,15,0,15,0.08
2013-3-25,36.4,29.4,23.8,28.2,22.8,19.1,85,77,60,27.77,26.97,7,0,7,0.00
2013-3-26,47.2,32.6,20.4,28.7,22.6,17.0,90,69,43,26.97,20.45,5,0,5,0.00
2013-3-27,62.2,56.6,48.8,32.5,30.3,26.3,50,37,27,25.48,24.53,10,0,10,0.00
2013-3-28,74.0,58.4,44.9,50.6,41.7,29.0,71,54,44,26.17,21.01,7,0,7,0.00
2013-3-29,70.0,59.4,52.5,56.7,51.9,46.9,92,77,60,26.28,24.02,6,0,6,0.28
2013-3-30,72.5,60.4,54.2,58.4,54.6,51.3,93,82,59,26.59,23.97,6,0,6,0.64
2013-3-31,72.3,58.4,47.9,55.1,46.6,38.8,93,68,37,26.72,22.07,12,0,12,0.07
2013-4-1,67.3,49.6,37.7,44.7,39.3,33.3,91,70,42,26.69,23.15,12,0,12,0.01
2013-4-2,43.4,38.2,36.3,36.3,34.5,31.4,92,87,64,26.42,20.86,7,0,7,0.42
2013-4-3,50.9,43.7,36.6,37.0,29.3,25.1,83,58,39,26.44,22.00,16,1,16,0.05
2013-4-4,60.7,48.2,39.9,39.9,36.0,31.3,86,66,35,26.07,20.83,10,0,10,0.02
2013-4-5,72.0,53.2,30.7,42.6,35.7,26.9,90,56,29,25.83,20.33,4,0,4,0.00
2013-4-6,77.5,63.2,52.4,50.7,45.3,36.4,68,53,37,26.13,24.19,14,1,14,0.00
2013-4-7,80.3,65.6,51.5,60.6,54.3,47.3,90,68,48,26.47,24.00,13,0,13,0.00
2013-4-8,74.2,66.1,60.5,62.3,58.5,54.3,90,77,66,24.85,23.91,14,0,14,0.16
2013-4-9,80.5,71.5,63.4,64.6,60.6,56.3,80,69,55,24.89,23.88,11,0,11,0.00
2013-4-10,73.0,47.8,37.4,64.9,44.5,35.6,93,89,66,26.72,23.43,9,0,9,1.04
2013-4-11,53.3,41.4,34.0,39.4,33.6,29.5,93,76,49,27.01,20.25,7,0,7,0.04
2013-4-12,60.7,46.3,33.7,38.6,33.6,29.2,87,64,41,27.08,17.60,9,0,9,0.00
2013-4-13,70.5,54.3,39.3,50.2,42.0,33.3,92,65,44,25.75,18.21,9,0,9,0.02
2013-4-14,80.1,67.9,54.4,54.2,50.1,44.8,74,55,36,25.55,24.03,18,1,18,0.00
2013-4-15,81.2,68.5,57.5,65.8,58.2,49.3,84,70,58,25.47,23.92,13,0,13,0.00
2013-4-16,78.7,62.8,52.2,64.7,55.8,48.9,91,79,60,24.53,24.03,7,0,7,0.00
2013-4-17,84.3,71.9,56.9,70.0,63.0,53.7,95,75,57,24.50,23.98,13,1,13,0.00
2013-4-18,75.1,49.7,38.5,66.4,45.1,30.7,93,84,72,26.05,24.05,13,0,13,3.27
2013-4-19,52.1,39.1,33.3,32.9,29.7,27.3,79,69,47,26.25,24.90,8,0,8,0.00
2013-4-21,64.1,56.8,52.2,44.2,40.2,37.4,58,54,45,24.45,24.36,2,0,2,0.00
2013-4-22,75.7,60.7,41.7,47.9,42.8,35.9,87,54,34,25.44,23.77,12,0,12,0.00
2013-4-23,60.0,50.7,36.9,54.4,44.9,34.4,91,81,60,26.22,23.97,7,0,7,0.12
2013-4-24,59.6,45.1,34.8,38.2,33.2,29.8,91,67,37,26.55,23.89,6,0,6,0.01
2013-4-25,72.3,53.7,30.1,40.6,34.2,26.2,90,53,27,27.95,24.08,5,0,5,0.00
2013-4-26,58.2,53.2,48.4,46.7,43.0,37.5,89,70,46,26.01,23.93,5,0,5,0.19
2013-5-2,51.7,43.4,34.4,45.1,39.2,31.8,94,85,77,26.37,25.01,12,0,12,0.23
2013-5-3,47.2,38.9,33.3,40.7,34.4,31.2,94,85,59,27.04,17.32,11,0,11,0.36
2013-5-4,46.7,40.7,35.8,41.9,36.7,32.3,93,86,76,27.16,17.32,4,0,4,0.25
2013-5-5,66.2,50.7,35.7,50.0,42.9,33.3,93,76,51,27.16,21.14,9,0,9,0.00
2013-5-6,66.8,55.4,48.6,54.7,49.4,44.6,92,81,63,26.48,24.03,7,0,7,0.00
2013-5-7,79.2,61.9,43.1,58.9,49.9,40.1,93,68,43,26.18,22.48,4,0,4,0.00
2013-5-8,81.0,65.6,49.3,63.0,55.0,45.9,92,71,45,24.49,23.95,8,0,8,0.00
2013-5-9,81.1,67.1,59.0,66.1,59.6,55.7,93,78,54,24.59,23.95,6,0,6,0.74
2013-5-10,72.8,63.4,55.0,64.8,58.0,50.6,95,84,64,27.13,27.13,0,0,0,1.16
2013-5-11,77.7,61.2,46.2,57.4,48.2,38.9,93,65,36,31.82,31.82,1,0,0,0.00
2013-5-12,72.3,55.0,38.1,45.1,38.7,34.3,90,59,29,26.04,25.01,0,0,0,0.00
2013-5-15,78.7,69.7,64.7,67.2,64.3,61.4,93,84,66,24.42,24.21,6,0,6,0.38
2013-5-16,69.4,64.8,61.3,65.3,61.6,59.3,94,89,82,24.58,24.13,4,0,4,0.04
2013-5-17,84.1,70.8,56.9,68.1,62.2,54.3,94,76,54,24.54,24.10,4,0,4,0.00
2013-5-18,88.5,75.9,62.6,76.2,68.8,59.6,94,79,63,24.49,24.23,6,0,6,0.00
2013-5-19,90.2,79.7,71.0,69.7,67.4,64.1,91,68,45,24.27,24.23,9,0,12,0.04
2013-5-20,79.3,72.8,66.3,71.3,66.7,60.6,91,82,72,24.54,24.23,10,0,10,0.08
2013-5-21,63.1,60.9,58.9,61.3,58.9,56.9,94,93,91,24.46,23.91,11,0,11,0.68
2013-5-22,78.1,66.1,54.4,64.9,58.2,52.7,95,78,53,26.76,23.96,6,0,6,0.01
2013-5-23,78.1,65.8,53.5,63.5,57.9,50.6,94,77,56,24.51,24.27,6,0,6,0.00
2013-5-24,79.0,67.5,57.0,64.0,57.3,53.1,87,71,55,24.49,24.25,10,0,10,0.00
2013-5-25,86.0,70.9,59.6,69.3,58.2,50.6,77,65,53,24.49,24.24,6,0,6,0.00
2013-5-28,86.9,79.5,73.2,69.8,66.0,63.6,75,64,54,24.25,24.23,11,1,11,0.01
2013-5-29,82.8,76.4,70.0,70.3,65.9,64.1,82,70,60,24.42,24.24,13,0,13,0.00
2013-5-30,81.0,71.7,63.1,70.7,65.3,60.4,93,81,64,24.46,24.24,15,0,15,0.86
2013-5-31,86.0,75.8,62.3,74.9,69.6,59.9,95,82,66,24.26,24.23,12,0,12,0.01
2013-6-1,78.7,69.8,59.5,71.7,64.0,55.3,94,82,65,24.37,24.23,12,0,12,0.44
2013-6-2,71.3,62.2,53.2,60.9,55.7,50.3,94,80,65,24.51,24.21,6,0,6,0.00
2013-6-3,81.5,66.5,47.2,63.8,56.3,44.4,94,72,44,24.52,24.25,4,0,4,0.00
2013-6-4,77.8,69.0,62.9,67.1,62.1,58.3,86,79,68,24.29,24.24,9,0,9,0.00
2013-6-5,82.2,69.7,61.1,71.4,63.9,58.1,94,83,64,24.33,24.14,6,0,6,0.46
2013-6-6,77.7,67.5,59.0,66.4,60.7,55.1,94,80,62,24.27,24.25,6,0,6,0.00
2013-6-7,81.7,67.0,51.5,62.3,55.9,48.7,94,70,44,24.37,24.24,9,0,9,0.00
2013-6-8,84.5,69.7,51.2,65.2,57.7,48.4,94,68,47,24.41,24.21,4,0,4,0.00
2013-6-9,85.5,73.9,64.5,70.1,62.4,58.3,91,69,43,24.41,24.12,6,0,6,0.02
2013-6-10,94.8,79.5,63.8,75.4,67.1,57.9,85,68,44,24.33,24.17,6,0,6,0.00
2013-6-11,96.7,82.3,67.5,76.3,69.0,63.8,92,67,42,24.33,24.09,7,0,7,0.00
2013-6-12,94.3,82.8,73.1,74.4,70.9,68.6,88,69,48,24.31,24.17,10,0,10,0.00
2013-6-13,90.5,79.5,69.8,75.2,70.2,65.6,93,75,46,24.31,24.09,5,0,5,0.00
2013-6-14,93.5,86.7,77.2,78.3,74.6,71.3,85,68,57,24.31,24.20,3,0,3,0.00
2013-6-15,94.0,78.8,69.5,78.5,69.9,65.4,94,75,55,24.32,24.09,7,0,7,0.23
2013-6-16,90.5,77.4,68.9,77.2,70.6,65.2,95,81,58,24.40,24.21,6,0,6,0.02
2013-6-17,72.5,69.8,66.2,69.9,66.7,63.1,94,90,86,24.26,24.23,6,0,6,0.34
2013-6-18,86.5,73.8,62.4,71.6,65.2,60.0,95,76,52,24.26,24.24,5,0,5,0.00
2013-6-19,89.8,76.3,60.6,72.1,64.6,57.7,94,69,46,24.24,24.23,2,0,5,0.00
2013-6-20,94.2,80.0,64.0,75.1,68.9,60.3,93,71,51,24.31,24.22,7,0,7,0.00
2013-6-21,95.5,84.2,73.8,77.1,72.5,69.5,89,70,52,24.23,24.22,6,0,6,0.00
2013-6-22,93.3,82.9,72.2,76.3,71.4,67.8,89,70,53,24.32,24.07,5,0,5,0.00
2013-6-23,94.2,82.7,72.1,75.8,71.1,67.5,91,70,52,24.36,24.21,8,0,8,0.00
2013-6-24,93.7,83.0,73.2,75.8,70.8,66.8,87,68,50,24.31,24.22,6,0,6,0.00
2013-6-25,92.7,82.2,74.9,74.7,71.0,68.6,85,70,51,24.31,24.08,12,0,12,0.00
2013-6-30,77.1,71.0,65.1,62.6,60.4,58.3,79,70,59,24.28,24.16,5,0,5,0.00
2013-7-1,85.8,71.6,59.3,64.3,57.6,51.6,92,64,38,24.26,24.25,10,0,10,0.00
2013-7-2,84.8,69.8,52.8,61.6,55.1,49.3,92,63,37,24.36,24.25,10,0,10,0.00
2013-7-3,87.4,70.8,53.7,62.6,54.8,50.1,92,62,31,24.27,24.23,12,0,12,0.00
2013-7-4,91.0,74.3,56.9,66.5,58.7,52.7,92,61,36,24.26,24.12,5,0,5,0.00
2013-7-5,93.8,77.5,57.7,67.9,60.7,53.9,92,60,35,24.26,24.23,5,0,5,0.00
2013-7-6,94.1,77.4,64.6,67.5,62.4,57.6,89,62,35,24.25,24.24,3,0,3,0.01
2013-7-7,96.5,81.7,68.9,71.3,66.2,60.8,87,62,37,24.34,24.12,4,0,4,0.00
2013-7-8,97.1,83.0,67.5,75.0,68.4,62.8,91,64,41,24.36,24.16,3,0,3,0.00
2013-7-9,99.1,85.6,71.9,76.4,70.6,66.7,89,63,44,24.24,24.22,7,0,7,0.00
2013-7-10,101.2,86.5,71.9,75.7,70.5,66.2,87,61,39,24.23,24.22,6,0,6,0.00
2013-7-11,97.1,83.6,70.7,77.4,69.3,62.8,90,64,42,24.23,24.22,4,0,4,0.00
2013-7-12,94.4,81.9,69.7,73.0,65.8,61.1,76,59,46,24.24,24.18,7,0,7,0.00
2013-7-13,91.8,78.7,63.5,66.4,61.4,57.2,84,58,39,24.32,24.09,4,0,4,0.00
2013-7-14,88.4,79.3,64.3,64.1,60.0,54.1,85,53,32,24.24,24.23,5,0,7,0.00
2013-7-15,95.1,80.7,70.6,70.1,67.0,63.0,84,65,42,24.24,24.18,11,0,11,0.00
2013-7-16,90.2,77.9,68.6,76.1,69.5,65.4,92,76,54,24.25,24.23,4,0,4,0.01
2013-7-17,94.8,81.8,66.7,74.4,68.1,63.7,94,66,41,24.23,24.23,1,0,5,0.00
2013-7-18,97.3,82.9,67.1,75.3,68.9,63.1,92,65,43,24.24,24.22,5,0,5,0.00
2013-7-19,99.1,83.2,71.6,74.9,69.4,65.8,85,65,41,24.23,24.22,4,0,5,0.00
2013-7-20,98.8,81.8,68.8,76.1,69.9,64.8,91,70,44,24.24,24.18,7,0,7,0.09
2013-7-21,83.2,75.1,69.3,76.2,71.1,66.2,92,88,77,24.25,24.23,4,0,4,0.26
2013-7-22,88.2,76.2,67.9,74.9,69.1,61.4,92,79,61,24.25,24.23,11,0,11,0.34
2013-7-23,99.8,85.5,72.5,80.2,74.1,66.6,90,71,48,24.25,24.21,11,0,11,0.17
2013-7-24,72.7,72.1,71.4,69.7,69.3,69.0,92,91,90,24.23,24.22,5,0,5,0.62
2013-11-8,64.7,56.6,49.6,42.9,40.5,37.6,71,56,39,24.40,24.19,1,0,7,0.00
2013-11-9,65.3,37.8,44.2,47.2,-2.3,-99.9,81,44,48,24.41,24.21,0,-318,1,0.00
2013-11-10,65.5,21.2,52.1,45.2,-50.4,-99.9,67,18,43,24.40,24.17,2,-654,4,0.00
2013-11-11,67.8,10.8,63.2,54.3,-74.8,-99.9,69,10,59,24.39,24.17,0,-836,1,0.00
2013-11-12,41.5,8.6,35.9,21.3,-74.4,-99.9,53,9,39,24.45,24.17,1,-780,6,0.00
2013-11-13,49.7,12.2,47.2,25.8,-69.0,-99.9,42,9,35,24.43,24.28,0,-749,2,0.00
2013-11-18,62.5,53.3,43.8,32.2,28.6,26.2,62,41,26,24.32,24.26,1,0,6,0.00
2013-11-19,60.8,50.6,39.0,34.3,28.1,19.2,68,44,29,24.43,24.15,1,0,5,0.00
2013-11-20,61.1,52.9,44.7,35.5,27.6,16.8,50,38,27,24.41,24.17,1,0,9,0.00
2013-11-22,34.4,32.9,31.7,32.3,30.3,29.1,93,90,89,24.50,24.16,0,0,6,0.00
2013-11-23,38.7,32.5,23.9,29.4,23.7,13.8,90,71,49,24.78,24.17,1,0,6,0.01
2013-11-24,31.8,26.4,19.3,18.7,15.1,12.1,80,63,50,24.50,24.19,0,0,5,0.00
2013-11-25,38.4,34.3,31.0,30.2,25.8,17.4,84,71,52,24.52,24.22,0,0,2,0.01
2013-11-26,46.9,35.9,27.1,33.5,27.2,16.9,89,72,52,24.49,24.42,1,0,6,0.00
2013-11-27,36.9,27.1,18.4,16.7,14.0,10.9,77,59,39,24.54,24.24,1,0,6,0.00
2013-11-28,54.0,35.4,21.2,31.2,23.0,14.2,77,62,40,24.51,24.42,1,0,3,0.00
2013-11-29,54.7,38.2,22.1,32.8,24.7,18.3,90,62,34,24.51,24.21,0,0,4,0.00
2013-11-30,58.9,45.2,33.0,44.1,36.3,23.9,92,71,58,24.51,24.15,2,0,6,0.00
2013-12-1,56.1,47.2,38.2,51.6,43.8,35.5,94,88,82,24.47,24.15,0,0,1,0.00
2013-12-2,63.6,48.9,40.4,53.2,43.3,36.6,94,82,59,24.50,24.14,0,0,1,0.00
2013-12-3,67.3,51.2,35.7,53.0,44.0,33.3,94,79,47,24.47,24.14,0,0,3,0.00
2013-12-4,63.2,47.0,33.5,52.5,41.6,29.4,98,82,57,24.46,24.13,1,0,4,0.01
2013-12-5,33.5,25.5,20.8,29.5,20.4,16.7,89,81,65,24.47,24.31,0,0,9,0.00
2013-12-6,24.4,19.8,15.3,19.7,15.3,8.4,89,82,73,24.48,24.33,0,0,10,0.00
2013-12-7,26.1,16.9,5.0,14.2,8.0,-0.1,81,69,50,24.50,24.29,2,0,6,0.00
2013-12-8,30.0,25.0,22.1,27.5,20.4,12.9,92,83,67,24.47,24.46,1,0,5,0.00
2013-12-9,27.7,23.1,21.4,17.8,16.5,14.6,84,76,64,24.47,24.22,0,0,5,0.01
2013-12-10,32.1,22.3,13.9,20.2,15.9,9.4,89,77,59,24.51,24.21,0,0,1,0.05
2013-12-11,37.5,24.9,15.1,27.5,18.2,10.8,90,76,62,24.52,24.20,0,0,3,0.15
2013-12-12,39.9,25.8,11.7,26.5,17.7,8.0,89,72,55,24.55,24.23,0,0,2,0.14
2013-12-13,37.8,34.0,26.6,33.9,29.9,20.8,92,85,76,24.45,24.22,1,0,5,0.41
2013-12-14,35.9,32.2,24.0,34.1,29.7,20.0,93,91,84,24.47,24.30,1,0,10,0.28
2013-12-15,46.5,32.5,19.0,36.3,26.7,15.9,92,80,64,24.97,24.27,0,0,2,0.10
2013-12-16,58.6,45.3,36.0,40.7,34.7,30.6,85,68,46,24.53,24.25,0,0,3,0.03
2013-12-17,59.2,42.8,30.9,40.9,31.7,24.4,90,67,40,24.54,24.16,1,0,8,0.00
2013-12-18,61.4,45.0,26.1,40.7,33.6,22.1,89,66,43,24.56,24.18,2,0,10,0.00
2013-12-19,59.9,55.7,50.9,55.3,49.1,40.3,85,78,65,24.47,24.13,2,1,9,0.00
2013-12-20,62.0,50.4,34.1,58.1,46.2,31.2,89,86,73,24.49,24.17,1,0,10,0.01
2013-12-22,28.8,28.1,26.9,25.4,24.6,23.3,87,87,86,24.52,24.28,0,0,10,0.00
2013-12-23,31.6,24.8,16.7,24.2,20.3,13.2,87,83,70,24.55,24.21,0,0,4,0.00
2013-12-24,41.3,27.6,15.7,30.0,21.4,12.4,90,78,62,24.57,24.22,1,0,5,0.02
2013-12-25,45.4,32.5,23.6,36.1,27.1,20.3,92,81,69,24.54,24.19,0,0,1,0.00
2013-12-26,51.7,34.5,22.2,36.3,26.3,19.7,95,74,47,24.54,24.22,0,0,3,0.00
2013-12-27,56.2,38.7,25.8,38.4,29.0,22.5,91,71,45,24.52,24.20,1,0,3,0.00
2013-12-28,54.5,39.3,24.4,39.0,29.5,20.4,92,70,43,24.45,24.26,1,0,4,0.00
2013-12-29,42.1,31.3,21.3,37.9,25.4,14.9,86,78,73,24.53,24.19,1,0,4,0.00
2013-12-30,38.4,25.9,14.7,24.9,18.2,10.2,84,73,56,24.57,24.20,0,0,3,0.00
2013-12-31,50.8,25.2,18.6,33.1,20.0,15.4,94,82,49,24.54,24.22,0,0,1,0.00